COSMOS 1323

导读

COSMOS 1323是苏联(归属独联体CIS)于1981年11月28日发射的“宇宙”系列卫星,该系列是苏联规模最大的综合性卫星家族,涵盖军事侦察、空间科学等多类任务。作为冷战时期苏联航天布局的组成部分,它体现了当时苏联在近地轨道部署航天器的稳定能力,多数该批次卫星承担军用监视或技术验证任务,完成使命后再入大气层销毁,推动了苏联空间技术积累。

基本信息
目录编号:
12978
目录名称:
COSMOS 1323
国际标识:
1981-116D
轨道中心:
EARTH
卫星名称:
COSMOS 1323
卫星全名:
--
卫星状态:
在轨 (已飞行16311 天)
发射日期:
1981-11-28 UTC
国别 :
俄罗斯(独联体) (CIS)
星等 :
--
轨道信息
数据来源 国际轨道数据
星历时间: 2026-07-25T16:36:41+0800
18小时前
查看轨道信息
半长轴: 7930.824km
偏心率: 0.0089837
轨道倾角: 73.986°
近地点辐角 172.714°
升交点赤经 325.820°
平近点角 254.298°
近地点: 1481.438km
远地点: 1623.936km
周期: 117.149分钟
每日圈数: 12.292079
详细信息
使用方式:
暂无
2D轨道图
3D轨道图
轨道高度分析图
轨道倾角分析图
轨道综合分析图
查看轨道综合分析图